You are here:

home

Questo sito é stato creato esclusivamente per valorizzare il lavoro svolto dall' intero
155° Gruppo E.T.S. del' Aeronautica Militare e non ha nessun fine commerciale ne di lucro. 
Pertanto, l' utilizzo delle foto é consentito solo per uso PRIVATO.

 

 
In alto

LIMS - Piacenza, San Damiano

[source: ADDS]
METAR
LIMS 211855Z 24003KT CAVOK 17/17 Q1005 RMK SKC VIS MIN 9999 WIND THR30 25001KT BLU =
TAF
TAF LIMS 211700Z 2118/2203 VRB05KT 9999 FEW050 TEMPO 2118/2120 7000 FEW010 BECMG 2122/2124 31018KT =
In alto
WEB MASTER
Paolo "paolopaso" Pasotti
______________________________________
Last Update: 25/02/2011
_____________________________________________________________________________________________________________
© 2010 / 2011 - Tutti i diritti riservati
 
 
In alto